TimePST,TemperatureF,Dew PointF,Humidity,Sea Level PressureIn,VisibilityMPH,Wind Direction,Wind SpeedMPH,Gust SpeedMPH,PrecipitationIn,Events,Conditions,WindDirDegrees,DateUTC
12:56 AM,61.0,36.0,39,30.12,10.0,Calm,Calm,-,N/A,,Overcast,0,2013-01-24 08:56:00
1:56 AM,60.1,37.0,42,30.13,10.0,South,4.6,-,N/A,,Mostly Cloudy,180,2013-01-24 09:56:00
2:56 AM,59.0,37.9,46,30.12,10.0,Calm,Calm,-,N/A,,Overcast,0,2013-01-24 10:56:00
3:56 AM,59.0,41.0,51,30.09,10.0,Calm,Calm,-,N/A,,Overcast,0,2013-01-24 11:56:00
4:56 AM,59.0,42.1,53,30.11,10.0,ENE,3.5,-,0.00,,Overcast,60,2013-01-24 12:56:00
5:56 AM,59.0,39.9,49,30.16,10.0,SSE,5.8,-,N/A,,Overcast,160,2013-01-24 13:56:00
6:56 AM,60.1,43.0,53,30.14,10.0,East,9.2,-,N/A,,Overcast,90,2013-01-24 14:56:00
7:56 AM,60.1,44.1,55,30.17,10.0,East,9.2,-,N/A,,Overcast,90,2013-01-24 15:56:00
8:56 AM,61.0,44.1,54,30.20,10.0,NNW,5.8,-,N/A,,Overcast,340,2013-01-24 16:56:00
9:56 AM,62.1,44.1,52,30.22,10.0,NNE,4.6,-,N/A,,Overcast,20,2013-01-24 17:56:00
10:56 AM,64.9,43.0,45,30.22,10.0,ENE,5.8,-,N/A,,Mostly Cloudy,60,2013-01-24 18:56:00
11:56 AM,71.1,39.0,31,30.19,10.0,Calm,Calm,-,N/A,,Mostly Cloudy,0,2013-01-24 19:56:00
12:56 PM,73.0,39.9,30,30.18,10.0,East,6.9,-,N/A,,Mostly Cloudy,80,2013-01-24 20:56:00
1:56 PM,73.0,43.0,34,30.16,10.0,NE,8.1,-,N/A,,Mostly Cloudy,50,2013-01-24 21:56:00
2:56 PM,72.0,42.1,34,30.15,10.0,Calm,Calm,-,N/A,,Mostly Cloudy,0,2013-01-24 22:56:00
3:56 PM,73.0,43.0,34,30.16,10.0,NNW,4.6,-,N/A,,Mostly Cloudy,340,2013-01-24 23:56:00
4:56 PM,69.1,41.0,36,30.17,10.0,NW,5.8,-,N/A,,Mostly Cloudy,310,2013-01-25 00:56:00
5:25 PM,-9999,-9999,N/A,-9999,-9999.0,North,-9999.0,-,N/A,,Unknown,0,2013-01-25 01:25:00
5:56 PM,62.1,46.0,56,30.19,10.0,NE,4.6,-,N/A,,Mostly Cloudy,50,2013-01-25 01:56:00
6:56 PM,61.0,44.1,54,30.19,10.0,NNE,4.6,-,N/A,,Mostly Cloudy,30,2013-01-25 02:56:00
7:56 PM,61.0,42.1,50,30.20,10.0,North,3.5,-,N/A,,Overcast,360,2013-01-25 03:56:00
8:55 PM,-9999,-9999,N/A,-9999,-9999.0,North,-9999.0,-,N/A,,Unknown,0,2013-01-25 04:55:00
8:56 PM,60.1,42.1,51,30.21,10.0,Calm,Calm,-,N/A,,Overcast,0,2013-01-25 04:56:00
9:56 PM,60.1,43.0,53,30.21,10.0,Calm,Calm,-,N/A,,Overcast,0,2013-01-25 05:56:00
10:56 PM,59.0,41.0,51,30.20,10.0,Calm,Calm,-,N/A,,Overcast,0,2013-01-25 06:56:00
11:56 PM,59.0,41.0,51,30.20,10.0,Calm,Calm,-,N/A,,Partly Cloudy,0,2013-01-25 07:56:00